This demonstration page uses our WeatherBlox Daily Observations layout. Learn more.

Left ArrowRight Arrow

44.8408, -93.29828

Hourly Observations for May 30, 2016

Temp ( °F °C ) Dew Point ( °F °C ) Humidity (%) Winds ( mph kmh ) Pressure ( in mb ) Visibility ( mi km ) Precip ( " mm )
12:53 am 00:53 Clear 65 18.3 57 13.9 76 76 Calm 29.98 1015 10 16 0.00 0.00
1:53 am 01:53 Clear 64 17.8 57 13.9 78 78 Calm 29.98 1015 9 14 0.00 0.00
2:53 am 02:53 Hazy 63 17.2 57 13.9 81 81 Calm 29.98 1015 6 10 0.00 0.00
3:53 am 03:53 Clear 61 16.1 57 13.9 87 87 S 3 6 29.98 1015 9 14 0.00 0.00
4:53 am 04:53 Clear 61 16.1 57 13.9 87 87 Calm 29.99 1016 10 16 0.00 0.00
5:53 am 05:53 Partly Cloudy with Patchy Fog 61 16.1 57 13.9 87 87 Calm 29.98 1015 7 11 0.00 0.00
6:53 am 06:53 Mostly Cloudy with Patchy Fog 62 16.7 58 14.4 86 86 Calm 29.99 1016 7 11 0.00 0.00
7:53 am 07:53 Mostly Cloudy 65 18.3 58 14.4 78 78 SW 6 9 30.01 1016 10 16 0.00 0.00
8:53 am 08:53 Mostly Cloudy 70 21.1 58 14.4 66 66 S 5 7 30.01 1016 10 16 0.00 0.00
9:53 am 09:53 Mostly Cloudy 74 23.3 56 13.3 54 54 SW 6 9 29.99 1016 10 16 0.00 0.00
10:53 am 10:53 Mostly Cloudy 77 25 55 12.8 47 47 S 6 9 29.98 1015 10 16 0.00 0.00
11:53 am 11:53 Mostly Cloudy 79 26.1 51 10.6 38 38 S 10 17 29.98 1015 10 16 0.00 0.00
12:53 pm 12:53 Mostly Cloudy 79 26.1 51 10.6 38 38 SW 8 13 29.98 1015 10 16 0.00 0.00
1:53 pm 13:53 Partly Cloudy 81 27.2 49 9.4 33 33 SW 5 7 29.96 1015 10 16 0.00 0.00
2:53 pm 14:53 Partly Cloudy 82 27.8 51 10.6 34 34 S 8 13 29.95 1014 10 16 0.00 0.00
3:53 pm 15:53 Partly Cloudy 83 28.3 51 10.6 33 33 SSE 9 15 29.93 1014 10 16 0.00 0.00
4:53 pm 16:53 Mostly Cloudy 83 28.3 48 8.9 30 30 SSW 10 17 29.91 1013 10 16 0.00 0.00
5:53 pm 17:53 Mostly Cloudy 83 28.3 48 8.9 30 30 S 9 15 29.89 1012 10 16 0.00 0.00
6:53 pm 18:53 Mostly Cloudy 80 26.7 51 10.6 37 37 SE 6 9 29.87 1012 10 16 0.00 0.00
7:53 pm 19:53 Mostly Cloudy 80 26.7 50 10 35 35 SE 12 19 29.87 1012 10 16 0.00 0.00
8:53 pm 20:53 Mostly Cloudy 77 25 52 11.1 42 42 ESE 13 20 29.87 1012 10 16 0.00 0.00
9:53 pm 21:53 Mostly Cloudy 75 23.9 53 11.7 46 46 SE 12 19 29.88 1012 10 16 0.00 0.00
10:53 pm 22:53 Mostly Cloudy with Light Rain 74 23.3 52 11.1 46 46 SE 10 17 29.88 1012 10 16 0.00 0.03
11:53 pm 23:53 Mostly Cloudy 73 22.8 55 12.8 53 53 SSE 10 17 29.87 1012 10 16 0.00 0.03

Powered by AerisWeather